GEO-KOMPSAT-2B

Last updated on Tue Oct 28 2025 00:02:51 GMT+0000 (Coordinated Universal Time)

1 45246U 20013B 25299.99903582 -.00000332 00000+0 00000+0 0 9996 2 45246 0.0220 358.4863 0001999 248.8210 276.2506 1.00271657 20949
UTC large
Height (km)
Speed (km/s)
/
Latitude / Longitude
Inclination (degrees)
Orbital Period (minutes)
Azimuth
Elevation
Range (km)
Doppler Factor

Next 0 passes for location: London (51.5072 / 0.1276)

Sorry there are no passes over London.